{"data":{"norad_id":57981,"epoch":"2026-09-20T22:07:48.298656Z","epoch_age_seconds":101191,"freshness":"FRESH","line1":"1 57981U 23151T   26263.92208679  .00000718  00000+0  35606-4 0  9993","line2":"2 57981  43.0036 331.3453 0001352 248.0769 111.9939 15.27576610165417","mean_motion":15.2757661,"eccentricity":0.0001352,"inclination_deg":43.0036,"raan_deg":331.3453,"arg_perigee_deg":248.0769,"mean_anomaly_deg":111.9939,"bstar":3.5606e-5,"rev_number":16541,"period_min":94.266957910543,"perigee_km":482.13161320539,"apogee_km":483.98688067056,"semimajor_km":6861.196246938,"source":"CELESTRAK","updated_at":"2026-09-21T09:00:33.751870Z"}}